Concord, CA

3:36 AM PDT on March 27, 2017 (GMT -0700)
Buchanan

Weather History for KCCR - September, 2013

Change the Weather History Date:

Saturday, September 14, 2013

  Actual Average Record
Temperature  
Mean Temperature 67 °F 70 °F  
Max Temperature 76 °F 85 °F 94 °F (2003)
Min Temperature 57 °F 56 °F 51 °F (2001)
Degree Days  
Heating Degree Days 0    
Month to date heating degree days 0  
Since 1 July heating degree days 6  
Cooling Degree Days 2    
Month to date cooling degree days 108  
Year to date cooling degree days 784  
Growing Degree Days 16 (Base 50)    
Moisture  
Dew Point 54 °F    
Average Humidity 68    
Maximum Humidity 86    
Minimum Humidity 50    
Precipitation  
Precipitation 0.00 in - 0.00 in (2017)
Month to date precipitation T  
Year to date precipitation 2.06  
Since 1 July precipitation T  
Sea Level Pressure  
Sea Level Pressure 29.73 in    
Wind  
Wind Speed 15 mph (SSW)    
Max Wind Speed 20 mph    
Max Gust Speed 37 mph    
Visibility 10 miles    
Events      
T = Trace of Precipitation, MM = Missing Value Source: NWS Daily Summary

Daily Weather History Graph

Daily Weather History Graph

Search for Another Location

Airport or City:

Trip Planner

Search our weather history database for the weather conditions in past years. The results will help you decide how hot, cold, wet, or windy it might be!

Date:

Astronomy

Sep. 14, 2013 Rise Set
Actual Time 6:49 AM PDT 7:17 PM PDT
Civil Twilight 6:23 AM PDT 7:43 PM PDT
Nautical Twilight 5:51 AM PDT 8:14 PM PDT
Astronomical Twilight 5:20 AM PDT 8:46 PM PDT
Moon 3:59 PM PDT (9/14) 1:30 AM PDT (9/14)
Length of Visible Light 13h 20m
Length of Day
12h 27m
Waxing Gibbous, 73% of the Moon is Illuminated
Sep 14
Waxing Gibbous
Sep 19
Full
Sep 26
Last Quarter
Oct 4
New
Oct 11
First Quarter

Hourly Weather History & Observations

Time (PDT) Temp. Dew Point Humidity Pressure Visibility Wind Dir Wind Speed Gust Speed Precip Events Conditions
12:53 AM 57.9 °F 53.1 °F 84% 29.73 in 10.0 mi South 17.3 mph 24.2 mph N/A   Clear
1:53 AM 57.9 °F 53.1 °F 84% 29.72 in 10.0 mi South 16.1 mph - N/A   Clear
2:53 AM 57.0 °F 53.1 °F 87% 29.72 in 10.0 mi South 15.0 mph - N/A   Clear
3:53 AM 57.0 °F 54.0 °F 89% 29.72 in 10.0 mi SSW 12.7 mph - N/A   Clear
4:53 AM 57.0 °F 53.1 °F 87% 29.73 in 10.0 mi SSW 15.0 mph - N/A   Clear
5:53 AM 57.0 °F 54.0 °F 89% 29.74 in 10.0 mi South 10.4 mph 18.4 mph N/A   Clear
6:53 AM 57.0 °F 54.0 °F 89% 29.74 in 10.0 mi South 13.8 mph - N/A   Clear
7:07 AM 57.2 °F 53.6 °F 88% 29.79 in 10.0 mi South 11.5 mph - N/A   Partly Cloudy
7:53 AM 57.9 °F 54.0 °F 87% 29.76 in 10.0 mi South 12.7 mph - N/A   Partly Cloudy
8:53 AM 60.1 °F 54.0 °F 80% 29.77 in 10.0 mi SSW 16.1 mph 21.9 mph N/A   Clear
9:53 AM 64.0 °F 55.0 °F 73% 29.77 in 10.0 mi SSW 13.8 mph - N/A   Partly Cloudy
10:53 AM 64.9 °F 54.0 °F 68% 29.77 in 10.0 mi SSW 17.3 mph - N/A   Clear
11:53 AM 68.0 °F 55.0 °F 63% 29.76 in 10.0 mi South 17.3 mph - N/A   Clear
12:53 PM 71.1 °F 55.0 °F 57% 29.75 in 10.0 mi SSW 16.1 mph - N/A   Clear
1:53 PM 73.9 °F 55.0 °F 52% 29.73 in 10.0 mi SSW 13.8 mph - N/A   Clear
2:53 PM 75.0 °F 55.0 °F 50% 29.71 in 9.0 mi SSW 16.1 mph - N/A   Clear
3:53 PM 75.0 °F 55.9 °F 51% 29.69 in 10.0 mi South 17.3 mph - N/A   Clear
4:53 PM 73.9 °F 55.0 °F 52% 29.68 in 10.0 mi SSW 12.7 mph - N/A   Clear
5:53 PM 72.0 °F 55.0 °F 55% 29.68 in 10.0 mi SSW 13.8 mph - N/A   Clear
6:53 PM 69.1 °F 55.0 °F 61% 29.68 in 10.0 mi South 11.5 mph - N/A   Clear
7:53 PM 63.0 °F 54.0 °F 72% 29.69 in 10.0 mi South 15.0 mph - N/A   Clear
8:53 PM 61.0 °F 54.0 °F 78% 29.70 in 10.0 mi South 15.0 mph - N/A   Clear
9:53 PM 60.1 °F 53.1 °F 78% 29.71 in 10.0 mi South 15.0 mph 23.0 mph N/A   Clear
10:53 PM 59.0 °F 53.1 °F 81% 29.72 in 10.0 mi South 15.0 mph 21.9 mph N/A   Clear
11:53 PM 57.9 °F 53.1 °F 84% 29.73 in 10.0 mi South 18.4 mph - N/A   Clear